Imperial, NE

2:58 AM MST on January 21, 2018 (GMT -0700)
Imperial Municipal

Weather History for KIML - March, 2014

Change the Weather History Date:

Wednesday, March 5, 2014

  Actual Average Record
Temperature  
Mean Temperature 39 °F 37 °F  
Max Temperature 47 °F 51 °F 79 °F (1910)
Min Temperature 30 °F 23 °F -15 °F (1943)
Degree Days  
Heating Degree Days 26 28  
Month to date heating degree days 219 145  
Cooling Degree Days 0 0  
Month to date cooling degree days 0 0  
Year to date cooling degree days 0 0  
Moisture  
Dew Point 30 °F    
Average Humidity 79    
Maximum Humidity 92    
Minimum Humidity 65    
Precipitation  
Precipitation 0.00 in 0.03 in 2.06 in (1983)
Snow  
Snow 0.00 in - - ()
Snow Depth -    
Sea Level Pressure  
Sea Level Pressure 30.15 in    
Wind  
Wind Speed 6 mph (East)    
Max Wind Speed 14 mph    
Max Gust Speed 16 mph    
Visibility 10 miles    
Events      
T = Trace of Precipitation, MM = Missing Value Source: NWS Daily Summary

Daily Weather History Graph

Daily Weather History Graph

Search for Another Location

Airport or City:

Trip Planner

Search our weather history database for the weather conditions in past years. The results will help you decide how hot, cold, wet, or windy it might be!

Date:

Astronomy

Mar. 05, 2014 Rise Set
Actual Time 6:13 AM MST 5:42 PM MST
Civil Twilight 5:46 AM MST 6:09 PM MST
Nautical Twilight 5:15 AM MST 6:41 PM MST
Astronomical Twilight 4:43 AM MST 7:13 PM MST
Moon 8:39 AM MST (3/5) 10:54 PM MST (3/5)
Length of Visible Light 12h 23m
Length of Day
11h 28m
Waxing Crescent, 24% of the Moon is Illuminated
Mar 5
Waxing Crescent
Mar 8
First Quarter
Mar 16
Full
Mar 23
Last Quarter
Mar 30
New

Hourly Weather History & Observations

Time (MST) Temp. Windchill Dew Point Humidity Pressure Visibility Wind Dir Wind Speed Gust Speed Precip Events Conditions
12:07 AM 32.0 °F 28.7 °F 28.4 °F 87% 30.05 in 10.0 mi NE 3.5 mph - N/A   Overcast
12:51 AM 30.2 °F 26.7 °F 28.4 °F 93% 30.06 in 10.0 mi NE 3.5 mph - N/A   Overcast
12:53 AM 30.9 °F 27.5 °F 28.0 °F 89% 30.09 in 10.0 mi NE 3.5 mph - N/A   Overcast
1:31 AM 30.2 °F 23.4 °F 26.6 °F 86% 30.06 in 10.0 mi NE 6.9 mph - N/A   Overcast
1:39 AM 30.2 °F 23.4 °F 26.6 °F 86% 30.07 in 10.0 mi NNE 6.9 mph - N/A   Overcast
1:53 AM 30.9 °F 26.2 °F 27.0 °F 85% 30.11 in 10.0 mi NE 4.6 mph - N/A   Overcast
2:53 AM 30.9 °F 26.2 °F 27.0 °F 85% 30.13 in 10.0 mi NNW 4.6 mph - N/A   Overcast
3:53 AM 30.9 °F 24.3 °F 27.0 °F 85% 30.14 in 10.0 mi North 6.9 mph - N/A   Overcast
4:08 AM 30.2 °F 26.7 °F 26.6 °F 86% 30.09 in - North 3.5 mph - N/A   Unknown
4:53 AM 30.9 °F 25.2 °F 28.0 °F 89% 30.16 in 10.0 mi North 5.8 mph - N/A   Unknown
5:03 AM 30.2 °F 25.4 °F 28.4 °F 93% 30.11 in 10.0 mi North 4.6 mph - N/A   Overcast
5:37 AM 30.2 °F 25.4 °F 26.6 °F 86% 30.12 in 10.0 mi North 4.6 mph - N/A   Unknown
5:53 AM 30.9 °F 26.2 °F 28.0 °F 89% 30.19 in 10.0 mi North 4.6 mph - N/A   Unknown
6:07 AM 30.2 °F 24.3 °F 28.4 °F 93% 30.13 in 10.0 mi North 5.8 mph - N/A   Overcast
6:53 AM 30.9 °F 27.5 °F 27.0 °F 85% 30.21 in 10.0 mi ENE 3.5 mph - N/A   Overcast
7:53 AM 30.9 °F - 28.0 °F 89% 30.22 in 10.0 mi Calm Calm - N/A   Overcast
8:53 AM 33.1 °F - 28.9 °F 85% 30.24 in 10.0 mi Calm Calm - N/A   Overcast
9:53 AM 35.1 °F 30.1 °F 30.9 °F 85% 30.25 in 10.0 mi North 5.8 mph - N/A   Overcast
10:53 AM 37.0 °F 33.3 °F 32.0 °F 82% 30.24 in 10.0 mi ENE 4.6 mph - N/A   Mostly Cloudy
11:45 AM 37.4 °F - 32.0 °F 81% 30.16 in 10.0 mi Calm Calm - N/A   Scattered Clouds
11:53 AM 39.0 °F 36.8 °F 33.1 °F 79% 30.22 in 10.0 mi ESE 3.5 mph - N/A   Scattered Clouds
12:14 PM 39.2 °F - 33.8 °F 81% 30.16 in 10.0 mi Calm Calm - N/A   Mostly Cloudy
12:44 PM 41.0 °F 37.1 °F 33.8 °F 76% 30.14 in 10.0 mi SE 5.8 mph - N/A   Scattered Clouds
12:51 PM 41.0 °F 39.0 °F 35.6 °F 81% 30.14 in 10.0 mi Variable 3.5 mph - N/A   Mostly Cloudy
12:53 PM 42.1 °F 39.2 °F 35.1 °F 76% 30.19 in 10.0 mi SSE 4.6 mph - N/A   Mostly Cloudy
1:01 PM 41.0 °F 38.0 °F 33.8 °F 76% 30.13 in 10.0 mi SSE 4.6 mph - N/A   Scattered Clouds
1:53 PM 44.1 °F 40.1 °F 35.1 °F 71% 30.17 in 10.0 mi ESE 6.9 mph - N/A   Clear
2:53 PM 46.0 °F 41.9 °F 35.1 °F 66% 30.15 in 10.0 mi SE 8.1 mph - N/A   Clear
3:53 PM 46.9 °F - 36.0 °F 66% 30.14 in 10.0 mi ESE 12.7 mph - N/A   Clear
4:53 PM 45.0 °F 39.3 °F 34.0 °F 65% 30.15 in 10.0 mi SE 11.5 mph - N/A   Clear
5:53 PM 39.0 °F 33.4 °F 30.9 °F 73% 30.16 in 10.0 mi SE 8.1 mph - N/A   Clear
6:53 PM 36.0 °F 29.0 °F 28.9 °F 76% 30.17 in 10.0 mi SSE 9.2 mph - N/A   Clear
7:53 PM 33.1 °F 25.5 °F 28.0 °F 82% 30.18 in 10.0 mi SSE 9.2 mph - N/A   Clear
8:53 PM 33.1 °F 24.9 °F 27.0 °F 78% 30.18 in 10.0 mi SSE 10.4 mph - N/A   Clear
9:53 PM 35.1 °F 27.9 °F 28.0 °F 76% 30.16 in 10.0 mi South 9.2 mph - N/A   Clear
10:53 PM 34.0 °F 27.2 °F 28.0 °F 79% 30.15 in 10.0 mi South 8.1 mph - N/A   Clear
11:53 PM 34.0 °F 26.6 °F 28.0 °F 79% 30.12 in 10.0 mi South 9.2 mph - N/A   Clear